Wind_Speed
31 32 33 33 34 35 37 39 41 42 44 45 46 47 48 49 48 46 47 46 45 45 45 45 45 44 44 44 44 45 46 46 47 48 48 48 48 48 48 49 49 49 50 51 52 52 53 53 54 55 56 56 57 58 58 59 59 59 58 57 55 53 51 50 48 47 46 46 47 47 47 47 47 48 48 48 48 48 48 48 49 49 51 54 56 57 58 60
31 31 31 32 33 33 34 35 36 37 39 40 42 44 46 47 47 47 47 45 44 45 45 45 45 45 45 45 46 46 47 48 48 49 49 49 49 49 49 49 50 50 51 52 52 52 53 53 54 55 56 56 57 57 57 57 56 54 53 51 50 48 46 45 45 45 45 45 45 44 43 44 44 45 46 47 48 48 48 49 50 50 52 54 56 57 59 60
29 29 30 31 31 31 32 32 32 33 34 35 37 40 42 44 46 46 45 43 43 44 44 44 44 44 45 45 46 47 47 48 49 49 49 49 49 49 50 50 50 51 51 51 52 52 53 54 54 55 55 56 56 56 54 52 50 49 47 46 45 43 43 43 43 43 43 42 42 42 41 41 42 44 45 46 47 48 49 50 51 52 53 54 56 57 59 60
27 28 29 30 30 30 31 31 30 30 31 32 34 37 40 41 43 43 42 42 42 44 43 43 43 43 44 45 46 47 47 48 49 49 49 49 49 49 49 50 50 50 51 51 52 52 53 54 54 54 54 54 53 52 49 46 44 43 42 41 41 41 42 41 41 40 40 40 40 40 40 40 41 43 44 45 47 48 49 51 52 53 54 54 56 58 60 62
26 27 29 29 29 29 30 30 29 28 29 30 32 36 38 40 41 41 41 41 42 43 43 42 43 43 44 45 45 45 45 46 47 48 48 48 48 48 48 49 50 50 51 51 52 52 53 53 53 53 52 50 48 46 43 41 39 38 38 38 39 40 40 39 37 37 37 38 39 39 40 40 41 42 44 46 48 48 49 51 52 53 54 55 57 58 60 62
26 27 28 28 28 28 28 28 28 27 28 30 33 36 37 38 39 40 41 41 42 42 42 42 42 43 43 43 43 43 42 43 46 47 47 47 47 48 48 49 49 50 51 51 52 52 52 52 51 50 48 45 42 39 37 36 35 36 36 37 37 36 36 36 35 35 36 37 38 39 40 41 41 43 45 47 48 49 50 52 53 54 55 56 58 59 60 62
26 27 27 27 27 27 27 27 27 27 28 31 34 36 37 37 37 38 39 40 40 40 42 41 39 40 40 41 41 42 42 43 45 47 47 47 47 48 48 49 50 50 50 50 51 51 50 49 48 46 43 40 36 34 32 32 33 34 34 34 33 33 34 35 35 35 36 37 39 39 40 41 42 44 45 47 49 50 51 53 54 55 56 57 58 59 61 63
26 27 27 26 26 25 25 25 26 27 27 31 33 35 36 35 34 34 35 37 36 37 40 39 37 37 37 38 39 40 41 43 45 46 47 47 47 47 48 49 49 49 49 49 49 48 47 45 43 40 37 34 31 30 30 31 31 31 30 30 30 31 33 34 35 36 36 37 39 40 41 43 44 45 46 48 49 51 52 53 55 56 57 57 58 59 61 63
27 27 26 26 25 24 23 23 24 25 26 30 34 34 33 32 32 32 32 33 34 34 36 37 37 38 38 38 39 40 42 43 45 46 46 46 47 47 48 48 48 48 48 47 46 45 43 40 37 34 31 29 28 28 29 29 28 28 28 28 29 30 31 34 35 36 37 37 39 41 42 44 45 46 48 50 51 52 53 54 55 56 57 58 59 60 62 65
28 27 25 25 23 22 22 22 23 26 28 32 34 35 34 33 31 32 33 34 34 35 36 36 36 37 37 38 39 40 42 43 43 44 45 46 47 47 48 48 48 47 45 44 43 41 38 35 31 28 27 26 27 27 27 26 26 26 27 27 29 30 31 34 36 37 38 37 38 42 43 45 46 48 49 51 52 53 54 55 56 57 58 59 60 62 64 67
29 26 25 24 22 20 20 21 22 26 31 34 35 35 35 34 33 33 34 36 36 37 39 39 39 38 38 39 40 40 42 42 43 44 45 46 47 48 48 48 46 44 42 40 38 36 33 29 27 25 25 25 26 26 25 25 25 25 26 27 29 31 32 34 36 38 39 39 39 42 45 46 48 50 51 52 54 54 55 56 57 58 59 60 62 63 65 68
29 26 25 23 22 20 19 20 22 26 31 34 36 37 36 35 35 34 34 35 36 38 40 41 42 41 40 41 42 42 43 44 45 46 47 48 48 48 48 45 42 40 38 36 33 30 27 25 24 24 24 25 25 25 25 25 25 25 26 27 28 31 33 34 36 38 40 41 41 43 45 47 49 51 52 53 55 55 56 57 58 59 61 62 63 64 66 68
28 24 24 23 22 20 19 20 22 23 25 28 33 36 36 36 36 36 36 36 37 38 39 41 43 43 43 43 44 45 46 46 47 48 48 49 48 46 43 40 38 36 33 31 28 25 23 23 24 24 24 24 25 25 25 25 25 26 27 28 29 31 33 35 37 38 41 43 44 45 47 49 50 52 53 54 55 56 57 58 59 61 62 63 64 65 67 69
24 22 23 23 21 20 21 23 21 18 17 20 24 27 30 31 32 34 35 36 37 38 39 40 42 42 42 43 44 46 47 47 48 47 46 45 42 40 38 35 33 31 29 26 23 21 22 23 24 24 25 25 25 25 25 26 27 27 28 30 32 33 35 37 40 41 43 45 47 48 49 51 52 53 55 56 57 58 59 60 61 62 63 64 65 66 67 69
21 21 24 23 21 24 24 25 23 21 19 20 20 21 23 24 25 26 28 30 32 33 35 37 38 36 35 36 38 40 41 42 41 40 39 37 36 35 33 32 29 27 24 22 20 20 21 23 24 25 25 25 25 25 26 26 27 28 30 32 33 36 37 39 42 44 46 48 49 50 51 52 54 55 56 57 58 60 60 61 62 63 64 65 66 67 68 69
19 22 26 25 26 29 26 24 24 27 27 26 24 24 23 23 24 25 26 27 29 30 32 35 34 31 30 30 31 31 32 32 32 32 33 32 32 31 30 28 25 23 21 20 19 20 22 23 24 25 25 25 25 25 26 26 28 31 33 33 34 36 38 41 44 45 47 49 51 52 53 53 55 56 57 58 60 61 62 62 63 64 64 65 66 67 68 70
20 25 28 28 29 32 30 27 26 28 31 31 30 29 28 27 27 28 29 30 31 32 34 35 33 31 30 28 27 26 26 27 28 29 30 29 29 28 26 23 21 20 19 19 20 21 23 24 25 26 26 25 26 26 27 30 31 32 33 34 35 36 39 42 44 46 47 50 53 55 55 55 56 57 58 60 61 62 63 63 63 64 65 66 67 68 69 71
21 27 31 31 33 34 34 32 30 29 31 33 34 34 33 32 32 33 33 34 35 36 36 36 33 30 26 23 22 23 24 26 27 28 28 27 26 24 21 20 18 17 18 19 21 23 24 25 26 26 26 26 27 28 29 31 31 31 33 36 37 38 40 41 43 46 48 50 54 57 58 57 58 59 60 61 62 63 63 64 64 65 66 67 68 69 70 71
24 28 32 33 35 36 35 34 34 33 33 33 35 35 36 36 36 36 37 38 38 38 37 34 29 24 22 21 22 24 25 26 27 27 27 25 22 20 18 17 16 17 19 21 23 24 25 26 26 26 27 28 29 30 30 30 30 33 36 38 40 41 41 42 43 46 49 51 54 58 60 59 60 61 61 62 62 63 64 65 65 65 67 68 68 69 71 72
26 28 32 36 37 38 37 37 37 36 34 34 34 34 35 36 37 37 37 38 38 36 33 28 22 20 20 22 23 24 26 27 27 26 23 21 18 17 16 16 16 18 20 23 24 25 26 26 27 27 28 29 30 30 30 31 33 36 38 39 41 43 43 44 45 46 49 51 53 58 61 61 61 62 63 63 64 65 65 66 66 66 68 69 70 71 72 73
29 29 31 36 39 40 40 39 39 37 35 34 32 31 32 32 33 33 32 32 31 28 24 21 19 20 21 23 24 25 26 26 25 23 20 17 16 15 15 15 17 19 22 24 25 26 27 27 27 28 29 30 30 31 33 35 36 38 39 41 42 44 46 47 47 47 48 50 52 56 61 62 62 64 65 65 66 66 66 66 67 68 69 71 71 72 73 74
30 30 29 32 37 40 41 42 41 39 37 35 32 31 31 29 28 26 25 23 21 18 18 19 20 21 22 23 24 24 24 23 22 19 17 16 15 15 15 16 18 21 23 24 26 27 27 28 28 29 30 31 32 33 35 36 38 39 41 43 44 44 46 48 49 48 48 50 52 56 62 63 63 65 67 67 67 67 67 68 68 69 70 72 72 73 74 75
30 31 30 30 32 34 36 40 40 38 34 31 29 29 28 25 22 21 20 18 16 15 16 18 20 22 22 22 23 22 21 21 19 17 16 15 15 15 15 17 20 23 24 25 26 27 28 29 29 30 31 32 33 35 37 38 40 42 43 45 45 46 45 47 50 51 51 51 52 54 61 66 65 67 69 69 69 69 69 69 70 71 71 72 73 74 75 77
29 32 31 30 29 27 29 33 34 31 28 25 23 24 23 22 20 18 18 17 16 15 16 19 21 22 22 22 22 20 19 19 17 16 16 15 15 15 17 20 22 24 25 26 27 28 29 29 30 31 31 33 35 37 39 41 43 44 45 45 45 46 46 47 49 52 53 53 53 53 59 67 67 67 70 71 70 69 69 70 70 71 72 73 74 74 76 79
29 32 31 29 25 22 24 27 28 27 26 25 24 23 22 22 19 16 16 17 16 16 18 20 21 22 23 21 19 18 18 18 17 16 16 15 16 17 19 22 24 25 25 26 27 28 29 30 31 32 33 34 36 39 41 43 44 45 46 46 46 47 48 49 50 52 53 54 55 55 58 65 68 67 70 71 71 69 69 70 71 72 73 74 75 75 77 79
31 33 31 27 21 20 22 23 25 27 28 27 26 24 22 21 19 15 15 16 16 18 20 21 22 22 21 19 18 17 17 17 17 16 16 16 17 19 21 23 25 25 26 27 28 28 29 31 32 33 34 35 37 40 42 44 46 47 47 47 47 48 50 51 52 53 55 56 58 58 60 66 69 68 70 71 70 70 70 70 71 73 74 75 76 76 78 80
32 34 32 27 23 23 22 22 24 26 28 27 25 23 21 21 19 16 15 16 18 20 21 22 22 21 19 18 17 17 17 18 17 17 17 17 19 21 23 24 26 27 27 28 28 29 30 31 32 33 34 37 39 41 43 45 47 48 48 48 49 51 51 52 53 55 58 59 62 62 62 67 70 68 69 70 71 71 70 70 72 73 74 75 77 77 78 81
30 33 32 30 27 26 25 23 22 24 26 25 24 22 21 20 19 17 17 19 21 22 22 22 21 19 18 17 17 17 18 18 18 18 18 19 21 23 25 26 27 28 29 29 29 30 31 31 32 34 36 39 41 43 44 46 47 48 49 50 51 52 52 54 56 58 61 62 64 65 63 67 71 71 70 71 72 73 72 72 74 74 75 76 78 78 80 83
27 31 33 32 30 28 27 25 23 24 25 24 23 21 21 21 19 18 20 22 23 24 23 21 19 18 17 17 17 18 19 19 19 19 19 21 23 25 26 28 29 29 30 30 31 32 33 33 34 36 38 40 42 44 45 46 47 48 50 52 53 54 54 55 58 61 63 64 66 67 66 67 70 72 72 73 74 75 76 75 75 76 77 78 80 81 82 84
25 30 33 34 32 30 28 26 25 26 25 23 22 21 22 22 21 21 23 24 25 24 21 19 17 17 17 17 18 19 20 20 19 20 21 23 25 26 28 29 30 30 31 32 33 34 35 35 37 38 40 41 43 45 46 47 47 48 50 52 54 55 56 57 59 62 65 67 68 69 69 70 72 72 73 75 76 78 79 78 77 78 79 80 82 83 83 84
23 28 33 35 34 32 30 28 26 25 24 22 22 24 24 23 22 24 25 25 25 22 19 17 16 16 17 17 19 20 21 20 20 21 23 25 26 28 29 30 31 32 33 34 36 36 37 38 39 41 42 43 44 46 47 48 49 50 51 52 53 55 56 58 59 61 66 69 70 70 70 73 76 75 75 77 78 80 81 80 79 80 81 82 83 85 84 83
22 25 31 35 35 33 31 29 27 25 24 24 25 26 25 24 25 26 27 26 23 20 18 17 16 16 17 19 20 21 20 21 21 22 24 26 28 29 30 31 33 34 35 36 37 39 40 41 41 42 44 45 46 47 48 49 50 52 53 54 54 55 56 57 57 59 65 71 73 72 72 74 77 77 77 78 79 81 82 82 81 82 82 82 83 84 82 82
21 23 28 33 36 35 33 30 28 27 26 27 28 28 26 26 27 27 27 24 21 19 18 17 17 17 18 20 21 21 20 21 22 24 26 27 29 31 32 33 34 35 36 37 39 40 42 42 43 44 45 47 48 49 49 51 52 54 55 55 55 56 55 56 57 57 62 70 74 75 74 74 76 77 77 78 80 81 82 83 82 82 81 81 82 82 81 81
19 22 25 31 36 37 35 33 31 30 30 30 31 30 29 29 29 28 25 22 20 19 18 17 18 19 20 20 20 20 20 21 23 25 27 28 30 31 33 34 35 36 38 39 41 42 42 43 44 45 46 48 50 51 52 53 54 55 56 57 57 58 59 60 61 61 63 69 74 76 74 75 76 76 76 78 80 81 81 82 81 81 81 81 82 81 80 81
19 21 24 28 33 36 36 36 35 34 33 33 33 33 32 32 30 26 23 21 19 19 18 18 19 20 20 20 20 21 21 23 25 27 28 29 30 32 33 34 36 37 39 40 41 42 43 43 45 46 48 50 51 53 55 56 56 56 57 58 59 60 61 63 66 67 67 69 74 76 74 74 76 76 77 78 80 80 80 80 81 81 80 81 82 81 80 81
18 20 22 25 29 33 36 37 37 37 36 35 35 34 32 30 27 24 22 20 19 19 19 19 20 21 21 21 21 22 24 25 27 28 29 30 31 32 33 35 37 38 39 40 41 42 43 44 46 48 50 52 54 56 58 59 59 59 59 59 61 62 64 65 67 69 69 70 75 78 74 72 74 75 76 78 79 79 79 79 80 80 81 82 81 80 81 83
18 19 21 24 26 30 33 35 36 36 35 35 33 30 28 26 25 23 21 19 19 19 19 20 21 22 22 22 23 24 26 27 28 29 30 31 32 33 34 36 37 39 40 41 42 43 44 46 48 50 52 54 57 59 61 62 62 62 62 62 63 64 66 68 69 70 70 69 72 78 78 73 73 75 76 77 78 79 79 80 80 80 81 82 81 81 83 86
17 19 20 22 24 27 29 30 31 31 30 29 27 26 25 24 23 22 20 19 19 20 20 21 22 22 23 24 25 26 27 28 29 30 31 32 33 35 36 37 39 40 41 42 43 44 46 48 50 52 54 56 58 60 62 63 64 65 65 66 66 67 69 71 73 73 73 69 68 74 79 77 75 76 77 78 79 79 80 80 80 81 81 81 81 82 85 88
17 18 20 21 23 25 26 26 26 26 25 25 25 24 24 23 22 21 20 20 20 21 21 22 23 24 24 26 27 28 29 29 30 31 32 33 35 36 38 39 40 41 43 44 45 47 49 50 52 54 55 57 59 60 62 63 65 66 68 69 70 70 71 73 75 77 77 74 70 71 77 78 77 78 79 79 80 80 80 79 79 79 80 80 81 83 86 88
16 18 19 20 22 23 24 24 24 25 25 24 24 24 23 22 21 21 21 21 21 22 23 23 24 25 26 27 29 30 30 31 32 33 34 35 36 38 39 40 41 43 44 45 47 48 50 52 53 54 56 58 59 61 63 64 66 67 69 71 72 72 72 73 75 77 78 78 74 73 77 79 79 80 81 81 80 80 79 78 77 78 78 79 81 84 86 87
16 18 19 19 20 21 22 23 24 24 24 23 23 23 22 22 21 21 22 22 23 23 23 24 25 26 28 29 30 31 32 33 34 34 35 37 38 39 40 41 43 44 45 46 48 49 51 52 54 56 57 59 61 62 64 66 67 68 70 72 74 74 74 73 73 75 78 79 76 75 79 82 80 81 81 81 80 79 78 76 76 76 78 79 81 84 85 87
16 17 18 18 18 19 20 22 23 23 23 23 22 22 22 21 21 22 23 23 24 24 24 25 26 28 30 31 32 33 34 35 36 36 37 38 40 41 42 43 44 46 47 48 49 51 52 53 55 58 59 60 62 63 65 67 68 70 71 73 75 76 76 75 74 74 76 79 78 75 79 84 83 82 81 81 80 78 76 75 75 75 77 79 82 84 85 87
15 16 17 17 18 19 21 22 22 22 22 21 21 21 21 22 22 23 24 24 24 25 25 26 28 29 31 32 34 35 35 37 38 39 39 41 42 43 44 45 46 47 48 49 51 52 54 55 56 58 60 61 64 65 66 68 70 71 72 74 76 77 78 77 75 73 75 80 81 77 77 83 85 83 82 81 80 78 75 74 74 75 77 80 82 83 85 87
15 16 17 18 19 20 21 21 21 21 21 21 21 21 22 22 23 24 25 25 25 26 26 28 29 31 33 34 35 36 37 38 40 41 42 43 44 45 46 46 47 49 50 52 53 55 56 57 58 59 61 61 63 65 67 69 71 71 72 74 76 78 79 78 76 73 74 79 83 80 77 82 86 86 84 82 80 77 75 74 74 74 77 80 81 83 85 88
16 17 18 19 20 20 21 21 20 20 20 21 21 22 22 23 24 25 25 26 26 27 28 29 31 32 34 35 37 38 39 40 41 43 44 45 46 46 47 48 49 51 53 54 56 58 59 60 60 61 63 62 63 65 66 68 71 72 72 74 76 77 78 78 77 75 74 77 82 84 80 79 82 85 84 82 78 75 74 73 73 74 77 80 81 83 85 88
18 19 19 20 20 20 20 20 20 20 21 21 22 23 23 24 25 25 26 26 27 28 29 30 32 33 35 36 38 40 41 42 43 44 46 47 47 48 49 50 52 54 55 57 58 60 61 62 62 64 66 66 66 68 69 70 72 73 73 74 75 77 78 80 80 78 77 77 81 85 83 79 78 80 80 76 73 72 72 71 72 74 77 79 82 84 86 89
19 19 20 20 20 20 20 20 21 21 21 22 23 24 24 25 26 26 27 27 28 29 30 31 33 34 36 37 39 41 42 43 45 46 47 48 49 50 52 53 55 56 58 59 61 61 62 64 64 65 68 68 67 69 71 72 74 74 73 74 75 77 79 82 83 82 80 80 81 82 84 82 79 78 76 72 69 69 69 69 71 74 77 80 82 85 88 90
19 19 20 20 20 20 20 21 21 22 23 23 24 25 25 26 26 27 28 28 29 30 31 33 34 36 37 39 41 42 43 45 46 47 48 50 51 52 54 56 57 59 60 61 62 62 61 62 63 64 68 70 69 69 71 72 74 75 74 75 76 78 80 82 85 84 82 83 82 81 82 84 81 76 73 70 68 68 68 69 72 75 78 81 83 86 89 90
19 19 20 20 20 21 21 22 22 23 24 24 25 26 26 27 27 28 29 29 30 32 33 34 36 37 39 40 42 44 45 46 47 49 50 52 53 54 56 57 59 59 60 61 61 61 59 59 61 61 65 70 70 69 70 72 74 76 77 77 78 79 81 83 85 85 82 82 83 81 80 80 79 74 70 68 68 68 69 71 73 76 78 81 84 87 89 90
19 20 20 20 21 21 22 23 23 24 25 25 26 27 27 28 28 29 30 31 32 33 34 35 37 39 40 42 43 45 46 47 49 50 52 53 54 55 56 58 59 60 60 60 59 59 58 58 59 59 62 67 70 69 71 73 75 77 78 79 80 80 81 83 85 84 82 81 82 81 78 75 72 69 67 67 68 69 70 72 75 78 80 82 85 87 89 91
19 20 20 20 21 22 23 24 25 25 26 27 27 28 28 29 30 30 32 32 33 35 36 37 39 40 42 43 44 46 48 49 51 52 53 54 55 56 57 58 59 59 59 59 58 59 59 58 60 59 60 65 68 69 71 74 77 78 79 79 80 80 80 82 85 85 83 81 79 77 74 70 66 64 64 66 68 70 72 74 76 79 81 83 86 87 90 92
20 20 20 21 22 23 24 25 26 26 27 28 28 29 30 30 31 32 33 34 35 36 38 39 40 42 43 44 46 47 49 50 52 53 54 55 55 56 57 57 59 59 59 59 59 59 60 61 61 62 61 64 68 70 71 74 77 78 77 78 79 79 79 80 84 85 81 78 76 73 71 68 65 63 63 64 68 72 74 76 78 80 83 84 86 88 90 92
Wind_Direction
240 242 243 244 243 242 240 238 237 237 237 237 237 239 241 243 244 243 243 244 246 248 249 250 251 252 254 255 256 258 259 261 263 264 266 267 268 270 272 274 275 277 280 281 283 286 288 290 291 293 294 295 296 298 299 300 301 300 300 300 300 300 300 300 303 306 310 312 312 312 311 311 311 311 311 311 311 311 312 310 309 308 307 307 307 307 307 307
243 244 246 246 246 245 244 241 240 238 237 236 236 237 239 241 243 244 244 245 248 250 252 253 253 254 255 257 258 260 262 264 265 267 268 269 271 272 274 276 278 280 282 284 286 288 289 291 293 294 295 296 298 300 301 301 301 300 300 299 299 300 302 305 309 313 314 313 310 310 311 312 312 313 314 314 315 316 316 314 313 312 311 311 311 311 311 311
245 246 247 247 247 247 246 244 242 239 237 235 234 234 236 238 240 242 244 246 248 250 252 253 255 256 258 259 260 261 263 264 265 267 268 271 273 274 276 278 280 282 284 286 287 289 291 292 294 295 297 299 300 301 301 301 300 300 299 300 302 304 308 312 314 313 312 311 310 311 312 314 315 315 316 317 317 318 317 316 315 315 315 315 314 313 314 315
246 246 247 247 247 247 247 246 242 240 237 235 233 232 233 235 238 240 242 244 246 249 251 253 255 257 259 260 262 263 264 265 266 267 269 271 273 275 277 279 281 284 285 287 288 290 292 294 296 297 299 300 301 301 301 300 299 299 300 304 308 311 312 312 312 310 311 311 311 313 314 316 317 317 317 317 317 319 318 316 316 316 316 316 315 315 316 317
245 246 247 248 247 246 246 246 243 239 235 233 231 230 232 234 237 240 241 243 244 247 249 251 253 255 257 259 261 264 266 268 268 269 270 272 274 276 278 280 282 284 286 288 290 292 294 296 298 299 300 300 300 300 299 298 299 302 306 312 313 311 310 309 309 310 312 312 312 314 316 317 317 317 318 318 318 319 318 317 317 317 318 318 317 318 319 320
245 246 248 248 248 246 244 244 243 237 231 227 226 227 230 232 235 238 241 242 244 245 247 248 251 252 254 257 260 262 264 267 268 270 272 274 276 278 279 281 283 284 287 289 292 294 296 297 298 299 299 299 299 299 299 302 306 310 313 312 309 307 307 308 309 311 312 312 312 313 316 318 319 319 319 318 319 319 319 318 318 319 320 320 321 321 322 323
245 247 249 250 250 248 244 241 239 233 226 221 222 224 226 227 230 235 239 242 244 246 247 247 249 251 253 256 258 260 262 264 267 270 273 276 278 279 280 282 283 286 289 292 294 295 296 297 298 298 298 298 297 298 303 309 313 313 310 307 306 306 307 308 310 311 313 313 312 314 318 320 320 320 320 319 319 320 320 320 321 321 322 323 323 324 325 327
247 248 251 253 252 249 244 240 234 228 221 216 216 217 220 222 224 230 236 241 242 244 247 247 246 248 250 253 255 258 261 264 268 271 274 276 278 279 280 282 285 288 291 293 294 295 296 296 297 297 297 298 299 304 311 314 312 308 305 305 306 307 308 309 311 313 313 313 314 317 320 321 321 321 321 320 320 322 322 322 323 323 323 324 325 326 328 331
250 250 253 255 255 250 244 236 227 217 212 211 210 210 213 217 221 226 231 236 238 239 245 247 246 247 248 251 255 258 262 265 269 272 274 275 277 279 281 284 288 291 293 294 294 294 295 295 296 297 298 302 308 313 314 311 307 304 304 304 305 306 307 308 310 311 311 314 318 320 321 321 321 322 322 321 322 323 323 323 323 324 324 325 326 327 330 333
254 254 255 256 254 250 241 230 218 207 203 205 206 206 208 212 218 225 228 231 235 236 241 245 247 250 251 253 257 259 262 265 268 271 272 275 277 279 283 287 290 292 293 293 293 294 295 296 296 298 303 310 314 313 309 305 302 301 302 304 304 305 305 306 308 310 312 317 321 321 321 321 321 321 322 323 323 324 323 323 324 324 324 325 326 329 332 335
258 258 258 255 248 241 231 217 207 202 201 202 204 206 209 212 218 224 229 232 235 238 242 245 248 251 253 254 256 258 261 264 267 269 272 275 278 282 286 289 291 291 291 292 293 294 295 295 298 304 311 313 311 307 303 300 299 300 302 304 304 306 307 309 311 314 318 321 322 321 321 321 321 322 323 324 323 323 323 323 324 324 324 326 328 331 333 335
261 260 255 248 236 225 213 199 195 200 204 204 204 206 210 214 218 223 227 232 236 239 243 246 249 250 252 254 256 258 261 263 266 269 272 276 280 284 287 289 289 290 291 292 293 294 295 298 304 310 312 309 306 302 300 299 300 300 301 302 304 307 308 310 314 319 321 320 320 320 321 321 323 325 324 323 323 322 323 323 324 324 326 328 329 331 332 335
261 256 246 237 225 211 199 192 195 203 206 208 210 210 213 217 221 225 228 232 236 240 244 247 250 252 254 256 257 259 261 264 267 271 274 278 281 284 285 287 288 290 291 292 292 294 299 306 309 309 308 304 301 299 299 298 298 300 302 302 303 304 307 311 316 319 319 318 319 321 323 325 326 326 324 322 321 322 323 324 325 326 327 329 330 330 332 335
256 244 231 224 212 194 193 196 195 200 205 211 218 219 221 225 229 233 236 239 242 245 249 252 255 258 260 261 262 263 265 267 270 273 276 278 280 281 284 287 289 291 290 290 292 298 306 309 307 305 302 300 299 298 297 297 301 304 303 302 304 308 313 318 318 318 319 321 322 324 327 327 326 325 324 323 322 323 324 325 326 327 328 329 329 330 332 334
247 227 215 209 194 180 192 203 192 188 198 207 215 221 226 230 232 236 239 242 245 248 251 254 258 261 263 265 266 266 267 268 270 272 274 275 278 281 286 289 290 289 288 290 296 304 307 305 302 300 299 299 299 299 300 303 306 303 301 304 311 317 320 321 319 320 323 325 326 327 326 326 325 325 325 324 324 325 326 327 327 328 328 329 329 331 332 334
237 214 205 199 187 178 188 207 200 190 194 201 207 211 217 222 224 228 233 237 242 246 250 255 260 264 267 269 268 267 267 268 269 270 272 275 280 284 287 288 287 286 289 295 302 305 303 299 297 295 295 296 297 300 302 301 298 297 303 310 314 318 320 319 320 323 328 330 328 326 325 325 326 326 325 326 327 328 328 328 328 329 328 328 329 331 333 333
229 207 201 196 189 184 185 198 206 202 200 203 207 211 214 219 223 229 233 238 243 248 253 259 266 271 272 270 268 267 267 267 268 270 274 279 283 285 286 285 284 288 295 302 304 301 298 296 293 292 293 294 295 297 296 295 298 305 311 313 313 314 316 318 322 326 329 330 328 326 325 326 326 326 327 328 329 329 329 329 329 329 328 328 330 332 332 332
225 205 200 195 189 189 189 192 198 205 210 211 214 217 219 224 229 235 239 243 249 252 256 264 271 272 268 264 264 263 263 265 268 272 277 282 284 284 282 281 285 293 300 301 299 296 294 292 291 292 293 293 294 296 297 302 309 313 312 312 312 313 314 318 323 325 327 328 327 327 326 327 328 328 329 330 331 330 329 330 330 329 329 329 331 332 332 331
225 207 200 196 191 192 195 197 198 201 208 214 219 222 225 230 235 240 244 248 253 256 261 267 268 264 258 257 259 260 263 267 271 276 280 281 282 280 279 282 289 297 299 296 293 291 290 290 291 292 293 295 297 300 304 308 310 309 308 310 312 313 316 317 319 321 324 327 328 328 328 329 329 330 330 332 332 332 331 331 330 330 330 331 331 331 330 330
224 212 200 197 196 196 198 201 204 205 207 211 218 223 228 233 238 243 248 252 256 259 262 262 257 253 252 255 258 262 267 271 274 278 279 279 278 277 280 286 293 296 294 291 289 288 288 290 290 290 292 294 298 302 304 304 304 305 308 311 314 315 316 316 318 322 324 326 328 329 329 329 330 331 332 333 334 334 332 331 331 331 332 332 331 331 330 330
223 218 205 198 199 201 203 206 210 212 214 217 221 225 231 236 242 247 251 254 256 257 255 249 246 248 252 256 262 267 271 273 275 276 276 275 274 275 281 288 292 291 288 287 287 288 289 289 288 288 290 292 296 299 300 301 302 305 308 310 312 315 317 319 320 321 322 324 326 327 328 329 331 333 334 334 335 334 333 332 332 333 333 332 331 330 330 331
221 221 213 204 203 205 207 210 213 217 222 226 230 234 238 242 246 246 248 249 250 250 245 242 246 251 255 261 267 271 272 272 273 273 273 272 271 274 281 287 288 286 285 285 285 286 286 287 287 289 290 292 294 296 298 301 304 306 307 309 311 315 320 322 321 321 322 324 325 328 330 331 332 334 334 334 334 334 333 334 334 334 333 332 331 331 331 334
219 221 218 211 210 211 210 212 216 220 223 227 233 235 236 240 242 241 241 240 239 239 240 245 251 256 261 268 272 271 269 269 271 272 271 268 270 276 283 285 285 284 284 285 285 285 286 287 287 288 290 293 296 298 300 302 303 305 307 310 314 317 319 322 323 323 324 325 327 331 333 332 334 335 335 334 334 334 334 335 335 334 333 332 331 332 334 336
219 220 221 219 217 213 207 208 212 215 217 219 223 225 227 232 233 233 234 232 233 238 243 248 254 260 268 272 271 267 266 268 270 270 267 268 272 278 283 283 282 281 283 283 284 285 286 286 287 290 294 296 299 300 302 303 304 306 309 313 315 317 319 321 323 324 325 328 330 334 336 334 333 335 334 333 333 334 335 335 335 334 333 332 333 334 336 337
219 222 223 222 218 207 201 204 205 207 212 216 220 223 226 226 224 226 231 232 237 243 247 252 259 268 272 271 266 263 265 267 267 266 266 269 274 279 280 280 279 279 280 281 282 283 284 286 289 292 296 298 300 302 303 305 307 309 312 314 316 318 319 320 323 325 328 331 332 335 337 334 333 334 333 332 332 333 335 335 335 334 333 333 334 335 336 337
216 223 225 223 215 201 200 205 204 205 210 215 220 222 222 220 221 231 239 240 245 250 253 260 268 272 271 265 261 261 263 264 265 264 266 271 275 278 278 278 278 279 280 281 282 283 285 287 291 294 297 299 300 302 304 306 309 311 313 314 316 317 319 321 325 327 328 331 333 335 338 335 332 333 332 331 332 333 334 334 335 334 333 334 335 335 335 336
215 221 225 223 213 202 201 206 206 207 210 212 214 214 217 221 228 243 250 249 251 254 260 268 272 271 264 259 259 259 260 262 263 263 267 272 275 276 276 277 278 280 281 283 284 286 287 290 292 295 298 299 300 303 306 308 310 312 314 316 318 319 322 324 325 327 328 331 333 334 336 333 331 332 331 331 332 332 333 334 335 334 334 334 335 334 335 337
217 220 222 223 217 207 203 205 207 205 203 203 206 212 221 226 233 247 253 251 253 257 266 272 270 264 258 256 256 256 259 262 262 264 267 272 274 275 275 276 279 281 283 285 286 288 289 292 294 296 297 299 302 305 307 310 312 314 316 318 319 320 323 324 325 327 328 330 331 331 332 332 330 331 332 331 331 331 333 334 335 335 335 335 334 334 335 338
218 218 220 222 220 213 207 207 209 204 200 201 210 220 227 230 239 249 251 251 255 263 270 269 262 257 256 254 253 254 258 261 262 264 268 271 273 274 275 277 280 283 286 287 288 290 292 294 295 295 297 301 304 306 308 311 313 315 317 319 321 321 323 324 325 326 326 327 328 328 329 330 330 331 331 331 331 331 332 334 335 335 336 335 335 335 336 338
218 216 217 220 221 217 212 212 214 209 208 213 221 228 229 235 246 249 249 252 261 268 268 261 256 255 255 252 252 253 257 262 264 266 269 270 272 274 276 278 282 284 286 287 288 291 293 295 295 296 299 301 304 307 310 312 314 315 318 319 320 320 321 323 325 325 324 325 325 326 328 329 329 331 331 331 331 332 332 333 335 337 336 336 336 337 337 338
217 215 215 217 219 218 215 216 216 213 216 222 227 230 233 241 249 249 251 258 265 266 259 253 253 253 254 252 252 253 257 263 267 269 269 270 271 274 276 279 282 284 286 287 290 292 294 295 297 298 300 302 305 308 310 312 314 315 316 317 319 320 321 322 323 323 323 323 324 325 328 329 329 331 331 331 331 331 332 333 336 337 337 337 337 337 337 337
217 214 214 215 217 218 217 216 217 216 219 223 227 231 237 245 248 250 257 264 264 257 251 251 252 252 253 252 252 255 259 264 268 270 270 271 272 274 276 279 281 284 286 289 291 293 294 296 298 300 302 304 307 308 310 311 313 314 315 317 319 319 319 319 319 321 322 323 324 325 328 329 329 330 331 331 331 331 332 333 335 337 337 337 337 337 337 336
215 213 212 212 214 217 217 215 215 215 218 223 229 235 241 245 248 255 262 262 256 251 250 250 249 250 252 252 253 256 261 266 269 271 272 272 274 276 277 279 281 284 286 288 290 292 294 297 299 301 303 306 307 308 309 310 312 314 315 316 317 317 316 316 317 320 322 324 325 326 327 328 328 329 330 330 331 331 332 332 334 336 336 336 336 336 336 336
214 211 210 210 212 215 217 215 214 215 219 225 231 237 241 246 254 260 259 253 250 250 249 247 247 249 251 252 255 259 264 269 271 272 273 274 276 278 279 280 282 284 286 288 290 292 294 296 299 301 303 305 306 307 308 309 311 313 315 316 316 317 318 319 319 321 323 325 325 325 326 327 328 328 329 330 330 331 331 332 333 335 336 335 336 336 336 336
212 209 208 208 211 214 217 217 218 220 224 229 234 240 246 252 257 256 250 247 249 250 248 246 247 249 251 255 258 263 267 271 272 274 275 276 278 279 281 282 283 285 287 289 291 293 295 297 299 301 303 305 306 307 307 309 311 312 314 315 316 317 319 320 321 323 324 325 325 324 325 327 328 328 329 330 330 330 331 332 334 335 335 336 336 336 336 337
211 208 206 207 210 214 218 220 223 227 232 236 241 246 250 252 250 246 244 246 248 247 246 246 247 250 253 258 262 267 270 272 274 275 276 278 280 281 282 283 285 287 289 291 293 294 296 298 300 302 303 305 306 307 308 310 311 312 313 315 316 317 319 320 321 322 324 325 325 324 324 327 327 328 329 329 329 330 331 333 334 335 336 336 335 335 336 338
209 206 205 206 208 212 216 221 225 231 236 239 242 244 244 243 240 241 244 245 245 245 245 246 248 252 256 260 265 268 270 272 274 275 277 279 281 282 285 286 288 290 291 293 295 297 298 300 301 302 304 305 306 308 309 311 312 312 314 315 316 318 319 320 321 322 322 324 325 324 324 326 327 327 328 329 329 330 332 334 335 336 336 336 335 336 338 340
207 205 204 206 208 211 215 219 224 229 232 234 235 236 235 236 239 241 243 243 242 243 244 246 250 254 258 262 266 268 271 273 275 276 278 281 283 286 287 289 291 292 294 296 297 298 299 301 302 303 305 306 307 308 309 311 312 313 314 316 317 319 320 321 321 321 322 323 324 325 324 326 328 328 329 329 330 331 333 335 336 337 336 335 336 338 339 341
205 203 204 207 209 211 214 218 221 223 225 227 230 231 234 237 239 240 241 241 241 242 244 247 251 256 260 264 267 270 272 273 276 278 280 283 286 288 290 291 293 294 296 297 298 300 300 302 303 304 305 306 307 309 310 311 312 313 315 316 317 319 320 320 321 322 322 323 324 326 325 325 328 328 329 330 331 332 334 335 337 336 335 335 337 339 340 341
202 201 202 207 210 212 215 217 220 222 225 227 230 233 236 237 238 238 239 240 241 242 245 250 254 258 262 265 268 271 273 275 277 280 282 285 287 289 291 292 294 295 296 298 299 300 302 303 304 305 306 307 308 309 310 311 312 314 315 316 317 318 319 320 321 322 323 323 325 327 326 326 328 329 329 330 331 332 334 336 337 336 335 336 338 340 341 341
200 201 205 211 215 216 218 221 223 225 228 231 234 236 236 236 236 238 240 240 242 244 248 251 256 260 263 266 269 271 274 276 279 281 284 286 288 289 291 292 294 295 296 298 300 301 302 304 304 305 306 307 308 309 310 311 313 314 315 315 316 317 318 319 321 322 323 323 325 328 327 327 328 329 329 330 331 332 334 336 337 336 336 337 339 340 340 340
206 208 213 218 221 223 224 226 228 230 232 234 236 236 236 236 237 239 241 242 244 247 251 254 257 261 264 267 270 272 275 278 281 283 285 287 289 290 291 292 294 295 297 299 300 302 303 304 305 306 306 307 308 309 310 311 313 314 314 315 316 317 318 319 321 322 323 323 324 328 328 327 327 328 329 330 331 332 335 336 337 337 337 338 339 339 339 339
215 218 223 226 227 229 231 233 235 235 236 237 237 236 236 237 239 241 243 245 247 251 254 257 259 262 265 269 272 274 277 280 283 285 286 289 291 292 293 294 296 297 298 300 301 303 304 304 305 306 307 308 309 310 311 312 312 313 314 315 316 317 318 319 320 322 324 324 324 327 328 327 327 328 329 330 331 333 335 336 338 338 337 337 338 338 339 339
225 227 230 232 234 235 237 238 238 239 238 238 238 238 240 241 243 244 246 248 251 254 257 260 262 264 267 270 273 276 279 282 284 286 288 291 293 294 296 297 298 299 300 302 303 304 304 305 305 306 306 308 309 310 311 311 312 313 314 315 316 317 318 318 320 322 324 324 323 325 328 328 327 328 330 331 332 333 334 336 338 338 336 336 337 338 338 338
234 235 237 239 241 242 242 241 240 239 239 239 240 242 243 246 247 249 251 253 256 258 261 263 265 267 269 272 275 278 281 284 286 287 290 292 294 296 297 298 300 301 302 303 304 304 305 305 306 306 306 307 308 309 310 311 311 312 314 315 316 317 317 318 319 321 324 324 323 324 327 328 327 328 330 331 332 332 334 336 337 336 335 336 337 337 338 337
241 243 244 245 246 245 244 242 241 240 241 241 244 245 247 249 251 253 255 257 260 263 265 267 268 270 272 274 277 280 283 285 287 289 291 294 296 297 299 300 301 302 303 304 305 306 306 307 307 308 308 309 310 311 312 312 313 313 314 315 316 317 318 318 319 321 324 324 324 324 325 326 327 327 329 330 330 331 333 335 336 335 335 335 336 337 337 337
248 250 249 249 248 246 244 242 241 242 243 245 247 249 251 253 255 257 259 261 264 267 269 271 272 274 275 278 280 282 285 287 289 291 293 296 298 299 300 301 302 303 304 305 306 306 307 307 308 309 309 309 311 312 313 313 313 313 315 316 316 317 318 319 319 321 323 324 323 324 324 325 327 328 328 329 329 330 332 334 335 335 334 335 336 337 337 338
254 254 253 251 249 246 244 243 243 244 246 249 251 254 255 257 259 261 263 265 268 270 272 274 276 277 278 280 282 284 287 289 291 293 295 297 299 300 301 302 303 304 305 306 306 307 307 308 309 310 310 310 311 312 313 313 313 313 315 316 317 318 318 318 318 320 322 323 322 324 324 325 327 329 329 329 329 330 332 334 334 334 335 335 336 336 337 338
258 256 254 251 248 246 245 245 246 248 250 253 256 258 259 261 262 264 267 269 271 273 275 277 278 280 281 282 284 286 289 291 293 295 297 298 299 300 302 303 304 305 306 306 307 307 307 308 308 310 310 310 311 312 313 313 313 314 315 316 317 317 318 318 318 319 321 321 322 323 324 325 327 329 329 328 329 330 332 333 333 334 335 336 336 336 337 338
260 257 254 251 249 248 247 247 249 251 254 256 259 261 263 264 266 268 270 272 274 276 278 279 280 281 283 284 286 288 290 292 294 295 297 298 300 301 302 303 304 305 306 306 307 307 308 308 308 309 310 309 310 312 313 313 313 313 315 316 316 317 317 318 317 317 319 321 321 323 324 325 327 328 328 328 328 329 331 333 333 334 336 336 335 336 337 338
260 257 255 252 250 249 249 250 251 254 257 259 261 264 265 267 269 271 273 275 276 278 280 281 282 283 284 286 287 289 291 292 294 296 297 298 300 301 302 303 304 305 305 306 306 307 308 308 308 309 310 309 310 311 312 312 312 312 314 315 316 317 318 318 317 317 319 322 322 323 324 326 327 328 328 328 328 329 331 332 333 334 335 335 335 336 337 338
260 258 255 253 252 252 252 253 254 256 259 262 264 266 268 269 271 273 275 277 278 279 281 282 284 285 286 287 288 289 291 293 294 296 297 299 300 301 302 302 303 303 304 305 306 307 307 308 308 309 309 309 309 310 312 311 311 311 313 314 315 316 318 318 317 318 321 323 324 324 326 327 328 328 328 329 329 329 330 332 333 334 334 335 335 336 337 338
Height
10733 10733 10734 10734 10734 10735 10737 10738 10740 10741 10743 10745 10747 10749 10750 10750 10752 10755 10756 10757 10759 10760 10762 10763 10764 10765 10765 10765 10765 10765 10765 10764 10763 10762 10762 10762 10762 10761 10761 10761 10760 10759 10758 10757 10756 10755 10754 10753 10752 10750 10749 10747 10745 10743 10741 10738 10734 10730 10726 10722 10719 10717 10713 10710 10708 10705 10703 10699 10696 10694 10691 10688 10684 10679 10676 10674 10670 10669 10667 10663 10660 10655 10648 10643 10638 10634 10630 10626
10731 10731 10731 10732 10732 10733 10734 10735 10737 10738 10740 10742 10744 10745 10746 10747 10749 10751 10752 10755 10757 10757 10759 10760 10761 10761 10762 10762 10762 10761 10761 10760 10759 10759 10759 10758 10758 10758 10758 10757 10757 10756 10755 10754 10753 10752 10751 10750 10748 10747 10745 10743 10741 10739 10737 10733 10729 10725 10722 10718 10715 10713 10710 10707 10705 10701 10699 10696 10693 10691 10689 10685 10681 10677 10673 10669 10665 10663 10660 10656 10653 10650 10645 10640 10634 10628 10623 10618
10729 10729 10729 10729 10730 10731 10731 10732 10734 10735 10737 10739 10741 10742 10743 10744 10746 10747 10750 10752 10754 10754 10755 10756 10757 10758 10758 10758 10758 10757 10757 10756 10756 10755 10755 10755 10755 10755 10754 10754 10753 10752 10751 10750 10749 10749 10748 10746 10745 10743 10741 10738 10736 10735 10732 10729 10724 10721 10718 10715 10711 10709 10706 10704 10702 10698 10696 10693 10689 10687 10685 10682 10678 10673 10670 10665 10661 10658 10654 10649 10645 10642 10638 10634 10628 10622 10616 10611
10726 10726 10726 10727 10727 10728 10728 10730 10731 10732 10734 10736 10738 10738 10740 10741 10742 10745 10747 10749 10750 10751 10752 10753 10754 10755 10755 10754 10754 10754 10753 10753 10752 10752 10753 10752 10752 10752 10751 10750 10749 10749 10748 10747 10746 10745 10744 10742 10741 10739 10737 10735 10732 10730 10728 10724 10721 10717 10714 10711 10708 10705 10703 10701 10699 10696 10693 10689 10686 10683 10681 10679 10675 10670 10666 10661 10657 10654 10649 10644 10640 10636 10632 10628 10623 10617 10610 10603
10724 10724 10724 10724 10725 10725 10726 10727 10728 10730 10731 10733 10735 10735 10737 10738 10740 10742 10744 10746 10747 10748 10749 10751 10751 10752 10752 10751 10751 10751 10750 10749 10749 10749 10749 10749 10749 10749 10748 10747 10746 10745 10745 10744 10743 10742 10741 10739 10737 10735 10734 10732 10729 10726 10724 10720 10717 10714 10711 10708 10704 10701 10699 10698 10696 10694 10690 10686 10682 10680 10677 10675 10671 10666 10661 10656 10652 10649 10645 10639 10635 10631 10627 10622 10616 10610 10603 10596
10721 10721 10721 10721 10722 10723 10724 10724 10725 10727 10729 10730 10732 10733 10734 10737 10738 10739 10741 10743 10744 10745 10747 10748 10749 10749 10749 10749 10749 10748 10747 10747 10746 10746 10746 10746 10746 10745 10745 10744 10743 10742 10742 10741 10740 10739 10738 10736 10734 10732 10730 10728 10726 10723 10720 10716 10713 10710 10707 10705 10702 10699 10696 10694 10693 10690 10687 10683 10678 10676 10674 10671 10667 10662 10657 10652 10648 10644 10640 10635 10630 10625 10620 10615 10609 10602 10596 10589
10718 10718 10718 10719 10719 10720 10721 10722 10723 10724 10726 10727 10729 10731 10733 10735 10736 10737 10739 10740 10742 10742 10743 10745 10746 10746 10746 10746 10746 10745 10745 10745 10744 10744 10744 10743 10743 10742 10742 10741 10740 10740 10739 10738 10737 10736 10734 10732 10730 10729 10727 10725 10723 10720 10717 10713 10711 10708 10705 10702 10699 10696 10693 10690 10689 10687 10684 10679 10675 10672 10670 10667 10663 10659 10654 10648 10644 10640 10635 10630 10624 10618 10613 10607 10602 10596 10589 10582
10716 10716 10716 10716 10717 10717 10718 10720 10720 10722 10723 10725 10727 10729 10731 10733 10735 10736 10737 10738 10740 10740 10741 10742 10743 10744 10744 10744 10743 10743 10742 10742 10741 10741 10741 10740 10740 10739 10739 10738 10738 10737 10737 10735 10734 10732 10731 10729 10727 10725 10723 10721 10718 10716 10714 10711 10708 10706 10703 10700 10696 10693 10690 10686 10684 10683 10680 10676 10670 10668 10666 10662 10658 10654 10650 10644 10640 10636 10630 10624 10618 10613 10607 10602 10596 10590 10583 10576
10713 10714 10714 10714 10714 10715 10716 10717 10717 10719 10722 10723 10725 10727 10730 10732 10734 10735 10736 10737 10738 10739 10739 10740 10741 10741 10741 10741 10740 10740 10740 10739 10739 10739 10738 10738 10737 10736 10736 10736 10735 10735 10734 10732 10730 10729 10727 10726 10724 10722 10719 10717 10715 10712 10710 10708 10705 10703 10700 10697 10694 10691 10687 10683 10681 10679 10677 10673 10667 10663 10661 10658 10653 10649 10645 10639 10635 10630 10625 10619 10613 10608 10602 10596 10590 10584 10577 10569
10710 10711 10712 10712 10712 10712 10713 10714 10715 10717 10719 10721 10723 10725 10728 10730 10732 10733 10735 10736 10736 10737 10737 10738 10738 10738 10739 10738 10738 10738 10738 10737 10737 10736 10736 10735 10734 10734 10734 10733 10733 10732 10730 10728 10727 10725 10724 10722 10720 10718 10716 10714 10712 10710 10708 10706 10703 10700 10698 10695 10691 10688 10685 10681 10678 10674 10672 10670 10665 10659 10657 10654 10650 10645 10640 10634 10630 10625 10620 10614 10608 10603 10597 10591 10584 10577 10570 10562
10707 10708 10709 10709 10709 10710 10711 10712 10714 10715 10716 10719 10721 10723 10725 10728 10729 10731 10732 10733 10734 10735 10735 10735 10736 10736 10736 10736 10736 10736 10735 10735 10734 10734 10733 10732 10732 10731 10731 10731 10730 10729 10727 10725 10723 10722 10720 10718 10717 10715 10713 10711 10709 10707 10705 10703 10700 10698 10695 10692 10688 10685 10682 10678 10674 10670 10666 10665 10662 10656 10652 10649 10645 10641 10636 10630 10625 10621 10615 10610 10604 10598 10592 10585 10578 10571 10564 10556
10704 10705 10705 10706 10707 10708 10710 10711 10713 10714 10715 10717 10719 10721 10723 10725 10727 10728 10730 10731 10732 10732 10733 10733 10733 10733 10733 10733 10733 10733 10733 10732 10732 10731 10730 10730 10729 10729 10728 10728 10727 10725 10723 10722 10720 10718 10716 10715 10713 10712 10710 10708 10707 10705 10702 10700 10697 10695 10693 10690 10686 10682 10678 10675 10671 10667 10662 10660 10658 10654 10650 10646 10641 10636 10631 10626 10621 10617 10611 10605 10599 10592 10586 10579 10572 10565 10558 10550
10701 10702 10702 10703 10705 10707 10709 10710 10712 10713 10714 10717 10718 10720 10722 10724 10725 10726 10728 10729 10729 10730 10730 10731 10731 10731 10731 10731 10731 10730 10730 10730 10729 10728 10728 10727 10727 10726 10726 10725 10723 10722 10720 10718 10717 10715 10713 10711 10710 10709 10708 10706 10704 10702 10700 10697 10694 10692 10690 10687 10684 10681 10676 10672 10669 10665 10660 10656 10653 10650 10646 10641 10637 10632 10627 10622 10617 10612 10607 10600 10594 10586 10579 10573 10567 10560 10552 10545
10698 10699 10699 10701 10702 10705 10708 10709 10711 10713 10715 10716 10718 10720 10722 10723 10725 10725 10726 10727 10727 10728 10728 10728 10728 10729 10729 10729 10728 10728 10728 10727 10726 10726 10725 10725 10724 10723 10723 10722 10720 10718 10717 10715 10714 10712 10710 10708 10707 10706 10705 10704 10702 10700 10697 10694 10691 10689 10686 10683 10680 10677 10673 10668 10664 10661 10657 10652 10648 10645 10641 10636 10632 10628 10623 10617 10612 10607 10601 10594 10588 10581 10574 10568 10561 10554 10547 10540
10696 10697 10697 10699 10701 10704 10706 10708 10710 10713 10715 10717 10718 10719 10721 10722 10723 10724 10725 10725 10725 10726 10725 10725 10726 10727 10727 10726 10726 10725 10725 10724 10723 10723 10722 10722 10721 10721 10720 10718 10717 10715 10714 10713 10711 10710 10708 10706 10705 10704 10702 10701 10699 10697 10694 10691 10688 10685 10683 10680 10676 10672 10668 10665 10660 10656 10653 10648 10644 10641 10637 10633 10628 10623 10618 10612 10606 10600 10594 10588 10582 10575 10569 10563 10556 10549 10541 10534
10694 10695 10695 10697 10699 10702 10705 10707 10709 10712 10714 10716 10717 10719 10720 10721 10722 10722 10723 10723 10723 10723 10723 10723 10724 10724 10725 10724 10723 10722 10722 10721 10721 10720 10720 10719 10719 10718 10717 10715 10714 10712 10711 10710 10708 10707 10706 10704 10703 10702 10700 10698 10696 10694 10691 10689 10686 10683 10680 10677 10674 10669 10665 10662 10657 10653 10649 10644 10639 10635 10633 10629 10624 10619 10613 10606 10600 10593 10588 10583 10577 10570 10564 10557 10550 10543 10535 10528
10692 10693 10694 10696 10698 10701 10704 10706 10709 10711 10713 10714 10715 10717 10718 10719 10720 10720 10720 10720 10721 10721 10720 10721 10721 10722 10722 10721 10720 10719 10719 10718 10718 10717 10717 10717 10716 10715 10714 10712 10711 10710 10708 10707 10706 10705 10704 10702 10701 10699 10698 10696 10694 10692 10689 10686 10683 10680 10677 10674 10672 10669 10664 10659 10654 10649 10646 10641 10634 10629 10626 10623 10619 10613 10607 10600 10594 10588 10583 10578 10572 10566 10559 10552 10544 10537 10530 10522
10690 10692 10693 10695 10697 10700 10702 10704 10707 10709 10710 10712 10713 10714 10715 10716 10717 10717 10718 10718 10718 10718 10718 10719 10719 10719 10719 10718 10717 10717 10716 10715 10715 10715 10715 10714 10713 10712 10711 10710 10709 10707 10706 10705 10704 10703 10702 10700 10699 10697 10695 10693 10691 10689 10686 10683 10680 10677 10674 10671 10668 10666 10662 10658 10653 10647 10643 10638 10631 10624 10620 10617 10612 10606 10601 10595 10589 10584 10578 10573 10567 10560 10553 10546 10538 10531 10524 10516
10688 10690 10692 10694 10696 10698 10700 10702 10704 10706 10707 10709 10710 10712 10713 10714 10715 10715 10715 10716 10716 10716 10716 10717 10717 10717 10716 10716 10715 10714 10714 10713 10713 10712 10712 10712 10711 10710 10709 10708 10707 10705 10704 10703 10702 10701 10700 10698 10696 10694 10692 10690 10688 10686 10683 10680 10678 10674 10671 10668 10665 10662 10660 10657 10653 10646 10640 10635 10628 10619 10613 10610 10606 10600 10595 10590 10585 10578 10572 10567 10561 10554 10547 10539 10532 10525 10518 10510
10686 10688 10691 10693 10695 10697 10699 10701 10702 10704 10705 10707 10709 10710 10711 10712 10713 10713 10714 10714 10714 10714 10715 10715 10715 10715 10714 10713 10713 10712 10711 10711 10710 10710 10710 10709 10709 10708 10707 10706 10705 10703 10702 10701 10700 10699 10698 10696 10694 10692 10690 10688 10685 10683 10681 10678 10675 10672 10669 10665 10661 10658 10655 10653 10649 10644 10638 10633 10626 10617 10608 10604 10600 10594 10589 10585 10580 10574 10567 10561 10555 10548 10540 10533 10526 10519 10511 10502
10684 10686 10689 10691 10693 10696 10698 10699 10701 10703 10704 10706 10707 10709 10710 10711 10711 10712 10712 10712 10712 10712 10713 10713 10713 10712 10712 10711 10711 10710 10709 10708 10708 10708 10707 10707 10707 10706 10705 10704 10703 10702 10701 10700 10698 10697 10695 10694 10692 10690 10688 10686 10684 10681 10678 10675 10673 10670 10666 10663 10660 10655 10651 10647 10645 10642 10637 10632 10625 10616 10605 10599 10595 10589 10583 10578 10574 10569 10562 10556 10549 10541 10534 10527 10520 10512 10504 10495
10682 10683 10687 10689 10691 10693 10695 10697 10699 10701 10703 10705 10706 10708 10708 10709 10710 10710 10710 10710 10710 10710 10711 10711 10711 10710 10710 10709 10708 10708 10707 10706 10706 10706 10705 10705 10705 10704 10703 10702 10701 10700 10699 10698 10697 10695 10693 10692 10690 10688 10686 10683 10681 10679 10676 10673 10670 10667 10664 10660 10657 10653 10648 10642 10639 10637 10635 10629 10623 10613 10602 10596 10592 10585 10579 10573 10568 10564 10557 10550 10543 10535 10529 10522 10515 10506 10497 10488
10681 10682 10684 10687 10690 10691 10693 10695 10697 10700 10702 10704 10705 10706 10707 10707 10708 10708 10708 10708 10709 10709 10709 10709 10709 10708 10708 10707 10706 10705 10704 10704 10704 10703 10703 10703 10703 10702 10701 10701 10700 10698 10697 10696 10695 10693 10691 10690 10688 10686 10683 10681 10678 10675 10673 10670 10667 10664 10661 10657 10652 10649 10646 10641 10634 10630 10628 10624 10620 10612 10600 10591 10588 10582 10574 10569 10564 10558 10551 10544 10537 10530 10523 10516 10509 10500 10491 10482
10680 10681 10682 10684 10687 10689 10692 10694 10696 10698 10701 10702 10703 10704 10705 10706 10706 10706 10707 10707 10707 10707 10707 10707 10707 10706 10706 10705 10704 10703 10702 10702 10702 10702 10702 10702 10701 10700 10700 10699 10698 10697 10696 10694 10693 10691 10689 10687 10685 10683 10681 10678 10675 10672 10669 10666 10663 10660 10657 10653 10649 10645 10642 10638 10633 10626 10622 10619 10615 10611 10601 10588 10584 10580 10572 10565 10559 10553 10546 10539 10532 10525 10518 10510 10502 10494 10485 10477
10679 10680 10681 10683 10686 10688 10690 10692 10694 10697 10699 10700 10702 10702 10703 10704 10704 10705 10705 10706 10706 10706 10706 10705 10705 10704 10703 10703 10702 10701 10700 10700 10700 10700 10700 10700 10699 10698 10698 10697 10696 10695 10694 10693 10692 10690 10688 10685 10683 10681 10678 10675 10673 10669 10666 10662 10659 10656 10652 10649 10646 10641 10637 10632 10628 10623 10618 10614 10610 10607 10602 10590 10582 10578 10570 10562 10554 10547 10541 10534 10527 10520 10512 10504 10496 10488 10480 10472
10678 10678 10680 10682 10685 10688 10690 10691 10693 10695 10697 10699 10700 10701 10702 10702 10703 10703 10704 10704 10704 10704 10704 10703 10703 10702 10701 10700 10700 10699 10699 10698 10699 10699 10698 10698 10697 10697 10696 10695 10694 10693 10692 10691 10689 10688 10685 10683 10680 10678 10675 10673 10670 10667 10663 10659 10655 10652 10649 10646 10642 10638 10633 10627 10623 10618 10613 10609 10604 10600 10597 10588 10580 10575 10568 10559 10551 10543 10536 10530 10522 10515 10507 10499 10491 10483 10476 10467
10677 10677 10678 10681 10684 10687 10689 10691 10692 10694 10696 10697 10698 10699 10700 10700 10701 10702 10702 10702 10702 10702 10702 10701 10700 10699 10699 10698 10698 10698 10697 10697 10697 10697 10696 10696 10695 10695 10694 10693 10692 10691 10689 10688 10687 10685 10683 10681 10678 10676 10673 10670 10668 10664 10661 10657 10652 10648 10644 10641 10637 10632 10628 10622 10617 10612 10607 10603 10598 10594 10592 10584 10576 10572 10565 10555 10547 10539 10532 10526 10518 10511 10503 10494 10486 10478 10470 10460
10675 10676 10677 10680 10683 10685 10688 10690 10692 10693 10694 10696 10697 10698 10698 10699 10699 10700 10700 10700 10700 10700 10700 10699 10698 10698 10697 10697 10696 10696 10696 10696 10696 10695 10695 10694 10693 10693 10692 10691 10690 10688 10687 10685 10684 10682 10681 10679 10676 10673 10671 10668 10665 10662 10658 10654 10650 10645 10640 10636 10632 10627 10623 10618 10612 10606 10601 10597 10593 10589 10588 10581 10570 10563 10558 10550 10542 10535 10528 10521 10514 10506 10498 10489 10480 10472 10462 10451
10674 10675 10676 10678 10681 10684 10687 10689 10691 10692 10693 10694 10695 10695 10696 10697 10698 10698 10699 10698 10698 10698 10698 10697 10696 10696 10695 10695 10695 10695 10694 10694 10694 10693 10693 10692 10691 10691 10690 10688 10687 10686 10684 10683 10681 10679 10677 10676 10674 10671 10668 10665 10662 10659 10655 10651 10647 10643 10637 10632 10627 10623 10619 10614 10608 10601 10595 10592 10588 10584 10581 10576 10567 10559 10551 10544 10537 10528 10521 10515 10507 10499 10490 10482 10473 10463 10453 10444
10673 10674 10675 10677 10680 10683 10685 10688 10689 10691 10692 10692 10693 10694 10695 10696 10696 10697 10697 10696 10696 10696 10695 10695 10694 10694 10693 10693 10693 10693 10693 10693 10692 10692 10691 10691 10690 10689 10688 10686 10685 10683 10682 10680 10678 10676 10674 10673 10671 10668 10665 10662 10659 10656 10652 10648 10644 10640 10635 10630 10625 10620 10616 10611 10606 10598 10591 10586 10584 10578 10573 10566 10559 10554 10546 10537 10530 10521 10514 10508 10501 10492 10483 10474 10465 10455 10446 10438
10671 10673 10674 10676 10679 10681 10684 10686 10688 10689 10690 10691 10692 10692 10693 10694 10694 10695 10695 10694 10694 10694 10693 10693 10692 10692 10692 10692 10692 10692 10692 10691 10691 10690 10689 10689 10688 10687 10686 10684 10682 10681 10679 10677 10675 10673 10671 10669 10667 10664 10662 10658 10655 10652 10648 10644 10640 10637 10633 10629 10624 10618 10613 10609 10604 10598 10588 10580 10577 10573 10567 10558 10549 10545 10539 10530 10523 10515 10507 10500 10492 10485 10476 10467 10458 10450 10441 10434
10670 10672 10673 10675 10678 10680 10683 10685 10686 10687 10688 10689 10690 10691 10692 10692 10692 10693 10693 10693 10692 10691 10691 10691 10690 10690 10690 10691 10691 10690 10690 10690 10689 10688 10688 10687 10686 10685 10684 10682 10680 10678 10677 10674 10672 10670 10667 10665 10663 10660 10657 10654 10651 10647 10644 10640 10636 10633 10629 10625 10621 10617 10612 10607 10602 10597 10586 10575 10568 10565 10562 10555 10544 10537 10532 10524 10517 10509 10501 10493 10486 10479 10471 10462 10454 10447 10439 10431
10669 10671 10672 10674 10677 10679 10681 10683 10685 10686 10687 10688 10688 10689 10689 10690 10690 10691 10691 10690 10690 10689 10689 10689 10689 10689 10689 10689 10689 10689 10688 10688 10687 10687 10686 10685 10684 10683 10681 10680 10678 10676 10674 10672 10670 10667 10664 10662 10659 10656 10653 10650 10646 10643 10640 10636 10632 10628 10624 10620 10617 10612 10609 10604 10599 10595 10587 10574 10564 10558 10555 10550 10542 10534 10528 10519 10512 10505 10497 10489 10482 10475 10467 10460 10452 10443 10436 10427
10669 10670 10671 10673 10675 10678 10680 10682 10683 10684 10685 10685 10686 10687 10687 10688 10688 10688 10688 10688 10688 10687 10687 10687 10687 10687 10687 10687 10687 10687 10687 10686 10685 10685 10684 10683 10682 10680 10679 10677 10675 10674 10672 10669 10667 10664 10662 10659 10656 10653 10650 10646 10642 10638 10635 10632 10628 10624 10619 10615 10611 10605 10600 10595 10590 10587 10584 10574 10562 10555 10551 10546 10538 10531 10524 10516 10508 10501 10494 10486 10479 10472 10464 10456 10447 10439 10431 10422
10668 10669 10670 10672 10674 10676 10678 10680 10681 10682 10683 10683 10684 10684 10685 10686 10686 10686 10686 10686 10686 10686 10686 10686 10686 10686 10686 10686 10685 10685 10685 10684 10683 10683 10682 10680 10679 10678 10676 10675 10673 10671 10669 10667 10664 10661 10658 10656 10652 10649 10645 10642 10638 10633 10629 10626 10623 10619 10615 10610 10605 10600 10595 10589 10583 10578 10576 10570 10559 10551 10549 10542 10532 10525 10519 10511 10504 10497 10491 10484 10475 10467 10459 10450 10441 10433 10425 10416
10667 10668 10670 10671 10673 10675 10677 10678 10679 10680 10681 10681 10682 10683 10683 10684 10684 10684 10684 10684 10684 10684 10684 10684 10684 10684 10684 10684 10683 10683 10683 10682 10681 10680 10679 10678 10677 10675 10674 10672 10670 10668 10666 10663 10661 10658 10655 10652 10648 10645 10641 10637 10633 10628 10624 10620 10616 10613 10610 10605 10600 10594 10589 10585 10580 10573 10569 10565 10554 10542 10541 10540 10531 10522 10516 10508 10500 10493 10486 10479 10470 10461 10452 10443 10435 10427 10418 10408
10667 10668 10669 10671 10672 10674 10675 10677 10678 10678 10679 10680 10680 10681 10681 10682 10682 10683 10682 10682 10682 10682 10682 10682 10682 10682 10682 10682 10681 10681 10681 10680 10679 10678 10677 10676 10674 10673 10671 10669 10667 10665 10662 10660 10657 10654 10651 10648 10644 10641 10637 10633 10628 10623 10618 10614 10610 10605 10602 10599 10595 10589 10583 10578 10574 10569 10565 10562 10553 10536 10529 10532 10527 10518 10512 10504 10496 10488 10480 10472 10463 10453 10444 10435 10427 10419 10409 10399
10666 10667 10669 10670 10671 10673 10674 10675 10676 10677 10677 10678 10679 10679 10680 10680 10681 10681 10680 10680 10680 10680 10681 10681 10681 10680 10680 10680 10679 10679 10678 10678 10677 10676 10674 10673 10671 10669 10668 10666 10664 10661 10659 10656 10653 10651 10647 10644 10640 10636 10633 10628 10624 10619 10613 10608 10604 10599 10594 10590 10587 10583 10577 10570 10565 10561 10556 10555 10553 10538 10522 10519 10518 10511 10504 10497 10489 10481 10473 10464 10455 10446 10437 10429 10420 10411 10401 10390
10666 10667 10668 10670 10671 10672 10673 10674 10675 10675 10676 10676 10677 10678 10678 10679 10679 10679 10679 10679 10679 10679 10679 10679 10679 10678 10678 10678 10677 10676 10676 10675 10674 10673 10672 10670 10668 10666 10664 10662 10660 10657 10655 10652 10650 10647 10643 10640 10637 10632 10628 10624 10620 10615 10609 10604 10599 10594 10589 10584 10579 10576 10571 10565 10557 10551 10545 10542 10543 10538 10522 10512 10510 10503 10496 10489 10482 10475 10467 10458 10450 10441 10432 10423 10414 10404 10394 10385
10666 10667 10668 10669 10670 10671 10672 10673 10673 10674 10674 10675 10676 10676 10677 10677 10677 10677 10677 10677 10677 10677 10677 10677 10677 10676 10676 10675 10675 10674 10673 10673 10671 10670 10669 10667 10665 10663 10661 10659 10656 10654 10651 10649 10646 10643 10639 10636 10632 10628 10624 10620 10616 10611 10605 10600 10595 10590 10584 10579 10574 10570 10566 10561 10554 10545 10538 10532 10530 10528 10517 10507 10502 10495 10488 10482 10475 10469 10461 10453 10446 10437 10427 10418 10408 10398 10390 10381
10666 10667 10668 10669 10670 10670 10671 10672 10672 10673 10674 10674 10674 10675 10675 10675 10675 10675 10675 10675 10676 10675 10675 10675 10674 10674 10673 10673 10672 10672 10671 10670 10668 10667 10665 10664 10662 10660 10658 10655 10653 10650 10647 10645 10642 10639 10636 10632 10627 10623 10620 10615 10610 10606 10601 10595 10590 10585 10580 10574 10568 10564 10559 10556 10551 10542 10533 10525 10523 10520 10509 10499 10495 10490 10482 10476 10469 10462 10455 10448 10441 10432 10421 10412 10403 10394 10386 10378
10667 10667 10668 10669 10670 10670 10671 10671 10672 10672 10673 10673 10673 10673 10673 10673 10674 10674 10674 10674 10674 10673 10673 10673 10672 10672 10671 10670 10670 10669 10668 10667 10665 10664 10662 10660 10658 10656 10654 10652 10649 10646 10643 10641 10637 10634 10631 10627 10623 10618 10614 10610 10605 10601 10597 10590 10585 10580 10574 10569 10563 10557 10552 10548 10544 10539 10530 10519 10515 10516 10506 10492 10487 10484 10476 10470 10463 10456 10450 10443 10434 10425 10414 10405 10398 10390 10383 10376
10667 10668 10668 10669 10669 10670 10670 10670 10671 10671 10671 10671 10671 10672 10672 10672 10672 10672 10672 10672 10672 10671 10671 10671 10670 10670 10669 10668 10667 10666 10665 10663 10662 10660 10659 10657 10655 10653 10650 10648 10645 10642 10639 10636 10632 10629 10626 10623 10619 10614 10609 10605 10599 10595 10591 10585 10580 10576 10570 10563 10557 10550 10545 10540 10536 10533 10527 10514 10506 10508 10504 10488 10478 10475 10470 10463 10456 10448 10443 10436 10427 10418 10409 10401 10394 10387 10379 10372
10667 10668 10668 10668 10669 10669 10669 10669 10670 10670 10670 10670 10670 10670 10670 10670 10671 10671 10670 10670 10670 10669 10669 10668 10668 10667 10666 10666 10664 10663 10662 10661 10659 10657 10655 10654 10651 10649 10646 10644 10641 10638 10635 10632 10628 10624 10621 10618 10615 10610 10606 10602 10596 10591 10587 10581 10574 10570 10566 10559 10552 10545 10538 10534 10531 10528 10524 10513 10500 10499 10500 10487 10471 10464 10460 10453 10446 10439 10434 10429 10422 10413 10405 10398 10391 10384 10376 10368
10667 10667 10667 10667 10668 10668 10668 10668 10668 10668 10668 10668 10669 10669 10669 10669 10669 10669 10669 10668 10668 10667 10667 10666 10665 10665 10664 10663 10662 10660 10659 10657 10656 10653 10651 10650 10647 10645 10642 10639 10637 10633 10630 10627 10623 10619 10615 10611 10608 10604 10599 10597 10594 10588 10584 10578 10570 10565 10561 10554 10547 10540 10533 10526 10523 10521 10519 10512 10497 10488 10491 10488 10473 10460 10454 10447 10440 10434 10429 10424 10417 10409 10402 10394 10388 10380 10373 10364
10666 10666 10666 10666 10666 10666 10666 10666 10666 10666 10667 10667 10667 10667 10667 10667 10667 10667 10667 10666 10666 10665 10665 10664 10663 10662 10661 10660 10659 10657 10656 10654 10652 10650 10647 10645 10643 10640 10638 10635 10632 10629 10625 10622 10618 10614 10609 10605 10601 10597 10590 10587 10585 10579 10574 10570 10564 10558 10554 10548 10542 10535 10527 10519 10514 10512 10511 10507 10496 10483 10478 10481 10476 10463 10454 10448 10439 10432 10426 10420 10414 10407 10399 10391 10384 10377 10369 10360
10664 10664 10664 10664 10664 10664 10664 10664 10664 10665 10665 10665 10665 10665 10666 10665 10665 10665 10664 10664 10663 10663 10662 10661 10660 10659 10658 10657 10655 10654 10652 10650 10648 10646 10644 10641 10639 10636 10633 10630 10627 10623 10620 10617 10613 10609 10605 10599 10595 10591 10584 10579 10579 10573 10567 10562 10556 10550 10547 10542 10536 10529 10522 10513 10505 10503 10501 10497 10492 10483 10471 10467 10467 10460 10449 10444 10437 10430 10424 10417 10411 10404 10396 10388 10380 10371 10362 10354
10663 10663 10662 10662 10662 10662 10663 10663 10663 10663 10663 10664 10664 10663 10663 10663 10663 10663 10662 10662 10661 10660 10659 10659 10658 10657 10655 10654 10652 10650 10649 10647 10644 10642 10640 10637 10634 10631 10628 10624 10621 10618 10614 10611 10607 10603 10601 10596 10591 10587 10578 10571 10571 10568 10562 10555 10548 10542 10539 10535 10530 10523 10516 10509 10499 10495 10494 10488 10482 10479 10469 10457 10455 10452 10443 10435 10430 10424 10419 10413 10406 10400 10392 10383 10374 10365 10356 10348
10661 10661 10661 10661 10661 10661 10661 10661 10661 10662 10662 10662 10662 10661 10661 10661 10661 10660 10659 10659 10658 10657 10657 10656 10654 10653 10652 10650 10649 10646 10644 10642 10640 10637 10635 10632 10629 10626 10623 10619 10616 10612 10609 10606 10601 10597 10595 10592 10587 10584 10576 10565 10562 10561 10556 10550 10543 10535 10531 10527 10523 10518 10511 10503 10495 10489 10489 10483 10475 10472 10467 10456 10447 10443 10437 10429 10423 10417 10412 10407 10400 10393 10386 10377 10368 10360 10352 10344
10660 10659 10659 10659 10659 10659 10660 10660 10660 10660 10660 10660 10660 10659 10659 10659 10658 10658 10657 10656 10656 10654 10653 10652 10651 10650 10648 10647 10645 10642 10640 10638 10636 10633 10630 10627 10624 10621 10618 10614 10610 10607 10603 10600 10596 10591 10589 10587 10582 10580 10575 10564 10557 10555 10549 10543 10536 10530 10525 10521 10516 10512 10505 10497 10488 10484 10483 10479 10471 10464 10460 10455 10446 10438 10431 10423 10417 10411 10406 10401 10394 10386 10379 10372 10364 10356 10348 10340
10658 10658 10658 10658 10657 10658 10658 10658 10658 10658 10658 10658 10657 10657 10657 10656 10656 10655 10654 10653 10653 10651 10650 10649 10647 10646 10644 10643 10641 10638 10636 10633 10631 10628 10625 10623 10619 10616 10613 10609 10604 10601 10597 10594 10591 10586 10583 10581 10577 10575 10573 10563 10555 10552 10546 10538 10531 10525 10521 10516 10510 10505 10500 10491 10480 10475 10474 10471 10465 10458 10452 10448 10443 10436 10428 10419 10410 10405 10400 10395 10388 10381 10374 10368 10361 10353 10344 10335
10656 10656 10656 10656 10656 10656 10656 10656 10656 10656 10656 10655 10655 10655 10654 10654 10653 10652 10651 10650 10649 10648 10646 10645 10643 10641 10640 10638 10636 10634 10632 10629 10626 10623 10620 10618 10614 10610 10608 10604 10599 10596 10592 10588 10586 10581 10577 10575 10571 10568 10567 10561 10552 10548 10544 10535 10526 10521 10517 10512 10506 10500 10496 10487 10473 10465 10466 10463 10456 10451 10445 10439 10434 10429 10424 10417 10407 10399 10394 10389 10383 10376 10371 10365 10357 10348 10340 10330